Powrót do katalogu

BREEZE-M DEB

TANK

AktywnyHEO
NORAD 39124·DEBRIS·🇷🇺 Russia

Wystrzelony Mar 26, 2013 z Baikonur Cosmodrome

Loading…

Następne Przeloty (najbliższe 24 godziny)

TLE

ŚwieżeSource: Space-Track

Epoka: Sep 13, 2026, 00:36 UTC

1 39124U 13012C   26256.02546511  .00002175  00000-0  57484-3 0  9997
2 39124  49.4680 160.7190 5529906 205.4251 111.8811  4.74152365224490

Śledź BREEZE-M DEB w czasie rzeczywistym z AllMySat

Download on the App Store